Regional Weather Roundup
Issued by NWS Raleigh/Durham, NC

Home | Current Version | Previous Version | Text Only | Print | Product List | Glossary On
Versions: 1 2 3 4 5 6 7 8 9 10 11 12 13 14 15 16 17 18 19 20 21 22 23 24 25 26 27 28
000
ASUS42 KRAH 211910
RWRRAH
NORTH CAROLINA WEATHER ROUNDUP
NATIONAL WEATHER SERVICE RALEIGH NC
200 PM EST SUN JAN 21 2018

NOTE: "FAIR" INDICATES FEW OR NO CLOUDS BELOW 12,000 FEET WITH NO
SIGNIFICANT WEATHER AND/OR OBSTRUCTIONS TO VISIBILITY.

NCZ001-053-055-056-065-067-212000-
WESTERN NORTH CAROLINA

CITY           SKY/WX    TMP DP  RH WIND       PRES   REMARKS
ASHEVILLE      CLOUDY    59  42  53 CALM      30.21F
JEFFERSON      CLOUDY    54  40  58 W3        30.20F
MORGANTON      CLOUDY    66  42  41 S7        30.22F
HICKORY        FAIR      67  42  40 VRB7      30.19F
RUTHERFORDTON  CLOUDY    65  41  41 S6        30.21F
MOUNT AIRY     FAIR      65  41  42 SW6       30.20F
BOONE          PTSUNNY   56  39  52 CALM      30.21F
$$

NCZ021-022-025-041-071-084-088-212000-
CENTRAL NORTH CAROLINA

CITY           SKY/WX    TMP DP  RH WIND       PRES   REMARKS
CHARLOTTE      FAIR      67  41  38 SE3       30.20F
GREENSBORO     PTSUNNY   63  44  50 SW10      30.19F
WINSTON-SALEM  PTSUNNY   63  41  44 VRB6      30.20F
RALEIGH-DURHAM FAIR      67  42  40 W9        30.20F
FORT BRAGG     FAIR      71  41  34 NW6       30.18F
FAYETTEVILLE   FAIR      69  43  38 NW7       30.19F
BURLINGTON     CLOUDY    67  43  41 SW5       30.19F
LAURINBURG     FAIR      69  41  36 MISG      30.21F
$$

NCZ011-015-027-028-043-044-047-080-103-212000-
NORTHEASTERN NORTH CAROLINA

CITY           SKY/WX    TMP DP  RH WIND       PRES   REMARKS
ROCKY MT-WILSO NOT AVBL
GREENVILLE     FAIR      64  37  36 N5        30.21F
WASHINGTON     FAIR      66  36  33 W5        30.20F
ELIZABETH CITY FAIR      65  52  62 E3        30.20F
MANTEO         FAIR      57  37  47 CALM      30.21S
CAPE HATTERAS  NOT AVBL
$$

NCZ078-087-090-091-093-098-101-212000-
SOUTHEASTERN NORTH CAROLINA

CITY           SKY/WX    TMP DP  RH WIND       PRES   REMARKS
LUMBERTON      FAIR      68  41  37 S5        30.19F
GOLDSBORO      FAIR      71  43  37 W6        30.17F
KINSTON        FAIR      68  41  37 N7        30.20F
KENANSVILLE    FAIR      66  45  45 NW7       30.20F
NEW BERN       FAIR      64  43  46 NE5       30.20F
CHERRY POINT   SUNNY     66  44  45 NE7       30.20F
BEAUFORT       FAIR      55  42  61 S6        30.21F
JACKSONVILLE   FAIR      67  43  41 W7        30.19F
WILMINGTON     FAIR      67  39  35 CALM      30.20F
$$





USA.gov is the U.S. government's official web portal to all federal, state and local government web resources and services.